| time (UTC) | temp F | wind direction | speed MPH | gust MPH | rain 1hr in | rain 24hr in | rain mn in | humidity % | barometer mb |
| 20260505073804 | 41 | 118 | 1.0 | 2.0 | 0.00 | 0.00 | 0.00 | 56 | 1020.1 |
| 20260505073305 | 41 | 101 | 0.0 | 1.0 | 0.00 | 0.00 | 0.00 | 56 | 1020.1 |
| 20260505072305 | 41 | 167 | 0.0 | 2.0 | 0.00 | 0.00 | 0.00 | 55 | 1020.0 |
| 20260505071304 | 41 | 193 | 1.0 | 3.0 | 0.00 | 0.00 | 0.00 | 55 | 1020.1 |
| 20260505070804 | 41 | 226 | 1.0 | 2.0 | 0.00 | 0.00 | 0.00 | 54 | 1020.0 |
| 20260505065804 | 41 | 191 | 1.0 | 2.0 | 0.00 | 0.00 | 0.00 | 52 | 1019.9 |
| 20260505065304 | 41 | 182 | 1.0 | 3.0 | 0.00 | 0.00 | 0.00 | 52 | 1019.9 |
| 20260505063804 | 42 | 179 | 2.0 | 3.0 | 0.00 | 0.00 | 0.00 | 49 | 1020.1 |
| 20260505062304 | 42 | 183 | 2.0 | 6.0 | 0.00 | 0.00 | 0.00 | 47 | 1019.9 |
| 20260505061803 | 43 | 193 | 1.0 | 3.0 | 0.00 | 0.00 | 0.00 | 46 | 1019.9 |
| 20260505060804 | 43 | 229 | 2.0 | 6.0 | 0.00 | 0.00 | 0.00 | 45 | 1019.8 |
| 20260505054804 | 44 | 140 | 2.0 | 6.0 | 0.00 | 0.00 | 0.00 | 38 | 1019.6 |
| 20260505054304 | 44 | 139 | 2.0 | 7.0 | 0.00 | 0.00 | 0.00 | 37 | 1019.5 |
| 20260505053804 | 44 | 144 | 2.0 | 10.0 | 0.00 | 0.00 | 0.00 | 37 | 1019.6 |
| 20260505052844 | 44 | 125 | 2.0 | 7.0 | 0.00 | 0.00 | 0.00 | 37 | 1019.4 |
| 20260505052344 | 44 | 140 | 2.0 | 5.0 | 0.00 | 0.00 | 0.00 | 37 | 1019.4 |
| 20260505051845 | 45 | 102 | 3.0 | 5.0 | 0.00 | 0.00 | 0.00 | 36 | 1019.2 |
| 20260505050804 | 45 | 130 | 2.0 | 5.0 | 0.00 | 0.00 | 0.00 | 36 | 1019.2 |
| 20260505050304 | 45 | 148 | 1.0 | 5.0 | 0.00 | 0.00 | 0.00 | 36 | 1019.2 |
| 20260505041304 | 46 | 116 | 0.0 | 2.0 | 0.00 | 0.00 | 0.00 | 36 | 1018.9 |
| 20260505040804 | 46 | 121 | 1.0 | 2.0 | 0.00 | 0.00 | 0.00 | 36 | 1018.6 |
| 20260505040304 | 46 | 133 | 2.0 | 3.0 | 0.00 | 0.00 | 0.00 | 35 | 1018.8 |
| 20260505035804 | 46 | 117 | 1.0 | 5.0 | 0.00 | 0.00 | 0.00 | 35 | 1018.7 |
| 20260505035304 | 47 | 138 | 1.0 | 6.0 | 0.00 | 0.00 | 0.00 | 35 | 1018.6 |
| 20260505034804 | 47 | 148 | 2.0 | 5.0 | 0.00 | 0.00 | 0.00 | 35 | 1018.6 |
| 20260505034304 | 47 | 129 | 2.0 | 6.0 | 0.00 | 0.00 | 0.00 | 35 | 1018.6 |
| 20260505033804 | 47 | 122 | 1.0 | 3.0 | 0.00 | 0.00 | 0.00 | 35 | 1018.6 |
| 20260505033304 | 47 | 128 | 1.0 | 5.0 | 0.00 | 0.00 | 0.00 | 34 | 1018.3 |
| 20260505032804 | 47 | 119 | 2.0 | 5.0 | 0.00 | 0.00 | 0.00 | 34 | 1018.5 |
| 20260505032304 | 48 | 158 | 1.0 | 5.0 | 0.00 | 0.00 | 0.00 | 34 | 1018.2 |
| 20260505031304 | 48 | 110 | 3.0 | 7.0 | 0.00 | 0.00 | 0.00 | 34 | 1018.3 |
| 20260505030304 | 48 | 127 | 2.0 | 6.0 | 0.00 | 0.00 | 0.00 | 33 | 1018.1 |
| 20260505025804 | 48 | 113 | 3.0 | 10.0 | 0.00 | 0.00 | 0.00 | 33 | 1018.1 |
| 20260505025305 | 48 | 142 | 2.0 | 8.0 | 0.00 | 0.00 | 0.00 | 33 | 1018.1 |
| 20260505024804 | 48 | 116 | 3.0 | 7.0 | 0.00 | 0.00 | 0.00 | 32 | 1018.0 |
| 20260505024304 | 49 | 123 | 4.0 | 13.0 | 0.00 | 0.00 | 0.00 | 32 | 1017.8 |
| 20260505023804 | 49 | 113 | 4.0 | 12.0 | 0.00 | 0.00 | 0.00 | 33 | 1017.8 |
| 20260505023304 | 49 | 163 | 2.0 | 7.0 | 0.00 | 0.00 | 0.00 | 32 | 1017.9 |
| 20260505022803 | 49 | 130 | 3.0 | 7.0 | 0.00 | 0.00 | 0.00 | 32 | 1017.9 |
| 20260505022304 | 49 | 131 | 3.0 | 10.0 | 0.00 | 0.00 | 0.00 | 31 | 1017.6 |
| 20260505021804 | 49 | 145 | 3.0 | 8.0 | 0.00 | 0.00 | 0.00 | 31 | 1017.8 |
| 20260505021304 | 50 | 110 | 4.0 | 14.0 | 0.00 | 0.00 | 0.00 | 31 | 1017.7 |
| 20260505020804 | 50 | 113 | 4.0 | 9.0 | 0.00 | 0.00 | 0.00 | 31 | 1017.6 |
| 20260505020304 | 50 | 148 | 5.0 | 10.0 | 0.00 | 0.00 | 0.00 | 30 | 1017.6 |
| 20260505015804 | 50 | 146 | 3.0 | 8.0 | 0.00 | 0.00 | 0.00 | 30 | 1017.5 |
| 20260505015304 | 50 | 136 | 3.0 | 8.0 | 0.00 | 0.00 | 0.00 | 30 | 1017.5 |
| 20260505014804 | 50 | 119 | 2.0 | 12.0 | 0.00 | 0.00 | 0.00 | 30 | 1017.4 |
| 20260505014304 | 51 | 125 | 5.0 | 10.0 | 0.00 | 0.00 | 0.00 | 29 | 1017.3 |
| 20260505013804 | 51 | 108 | 5.0 | 10.0 | 0.00 | 0.00 | 0.00 | 29 | 1017.4 |
| 20260505013304 | 51 | 112 | 4.0 | 12.0 | 0.00 | 0.00 | 0.00 | 29 | 1017.2 |
| 20260505012803 | 51 | 163 | 4.0 | 12.0 | 0.00 | 0.00 | 0.00 | 29 | 1017.5 |
| 20260505012304 | 51 | 143 | 5.0 | 10.0 | 0.00 | 0.00 | 0.00 | 28 | 1017.3 |
| 20260505011804 | 51 | 143 | 5.0 | 15.0 | 0.00 | 0.00 | 0.00 | 28 | 1017.3 |
| 20260505011304 | 52 | 104 | 6.0 | 13.0 | 0.00 | 0.00 | 0.00 | 27 | 1017.3 |
| 20260505010804 | 52 | 146 | 6.0 | 14.0 | 0.00 | 0.00 | 0.00 | 27 | 1017.4 |
| 20260505010304 | 52 | 94 | 5.0 | 14.0 | 0.00 | 0.00 | 0.00 | 26 | 1017.6 |
| 20260505005304 | 53 | 148 | 5.0 | 10.0 | 0.00 | 0.00 | 0.00 | 26 | 1017.3 |
| 20260505004304 | 53 | 93 | 6.0 | 12.0 | 0.00 | 0.00 | 0.00 | 26 | 1017.3 |
| 20260505003804 | 53 | 114 | 6.0 | 15.0 | 0.00 | 0.00 | 0.00 | 26 | 1017.4 |
| 20260505003304 | 53 | 154 | 3.0 | 8.0 | 0.00 | 0.00 | 0.00 | 26 | 1017.4 |
| 20260505002804 | 53 | 103 | 5.0 | 10.0 | 0.00 | 0.00 | 0.00 | 25 | 1017.5 |
| 20260505002304 | 53 | 108 | 5.0 | 12.0 | 0.00 | 0.00 | 0.00 | 26 | 1017.3 |
| 20260505001804 | 53 | 122 | 4.0 | 13.0 | 0.00 | 0.00 | 0.00 | 26 | 1017.5 |
| 20260505001303 | 53 | 113 | 6.0 | 14.0 | 0.00 | 0.00 | 0.00 | 25 | 1017.3 |
| 20260505000803 | 53 | 122 | 6.0 | 13.0 | 0.00 | 0.00 | 0.00 | 25 | 1017.2 |
| 20260505000304 | 53 | 176 | 5.0 | 12.0 | 0.00 | 0.00 | 0.00 | 24 | 1017.1 |
| 20260504235804 | 54 | 107 | 6.0 | 14.0 | 0.00 | 0.00 | 0.00 | 25 | 1017.4 |
| 20260504235305 | 54 | 108 | 6.0 | 20.0 | 0.00 | 0.00 | 0.00 | 25 | 1017.2 |
| 20260504234804 | 54 | 114 | 5.0 | 12.0 | 0.00 | 0.00 | 0.00 | 24 | 1017.0 |
| 20260504234304 | 53 | 148 | 5.0 | 12.0 | 0.00 | 0.00 | 0.00 | 24 | 1017.1 |
| 20260504233805 | 54 | 141 | 6.0 | 21.0 | 0.00 | 0.00 | 0.00 | 25 | 1017.4 |
| 20260504233304 | 54 | 118 | 5.0 | 14.0 | 0.00 | 0.00 | 0.00 | 25 | 1017.3 |
| 20260504232804 | 54 | 134 | 6.0 | 12.0 | 0.00 | 0.00 | 0.00 | 24 | 1017.1 |
| 20260504232304 | 54 | 108 | 7.0 | 18.0 | 0.00 | 0.00 | 0.00 | 25 | 1017.3 |
| 20260504231803 | 54 | 104 | 8.0 | 15.0 | 0.00 | 0.00 | 0.00 | 25 | 1017.3 |
| 20260504231304 | 54 | 109 | 6.0 | 16.0 | 0.00 | 0.00 | 0.00 | 26 | 1017.3 |
| 20260504230804 | 54 | 104 | 5.0 | 15.0 | 0.00 | 0.00 | 0.00 | 25 | 1017.3 |
| 20260504225804 | 55 | 107 | 3.0 | 12.0 | 0.00 | 0.00 | 0.00 | 25 | 1017.1 |
| 20260504225304 | 56 | 93 | 6.0 | 14.0 | 0.00 | 0.00 | 0.00 | 24 | 1017.2 |
| 20260504224804 | 56 | 145 | 6.0 | 16.0 | 0.00 | 0.00 | 0.00 | 24 | 1017.3 |
| 20260504224304 | 55 | 127 | 6.0 | 15.0 | 0.00 | 0.00 | 0.00 | 25 | 1017.2 |
| 20260504223804 | 55 | 111 | 6.0 | 15.0 | 0.00 | 0.00 | 0.00 | 25 | 1017.2 |
| 20260504222803 | 55 | 118 | 6.0 | 15.0 | 0.00 | 0.00 | 0.00 | 25 | 1017.0 |
| 20260504221304 | 55 | 105 | 7.0 | 22.0 | 0.00 | 0.00 | 0.00 | 25 | 1017.0 |
| 20260504220804 | 55 | 67 | 6.0 | 16.0 | 0.00 | 0.00 | 0.00 | 25 | 1017.3 |
| 20260504215804 | 55 | 121 | 7.0 | 15.0 | 0.00 | 0.00 | 0.00 | 24 | 1017.3 |
| 20260504215305 | 55 | 104 | 7.0 | 15.0 | 0.00 | 0.00 | 0.00 | 25 | 1017.4 |
| 20260504214305 | 55 | 85 | 7.0 | 15.0 | 0.00 | 0.00 | 0.00 | 25 | 1017.5 |
| 20260504213803 | 55 | 114 | 7.0 | 15.0 | 0.00 | 0.00 | 0.00 | 25 | 1017.4 |
| 20260504213304 | 55 | 115 | 6.0 | 15.0 | 0.00 | 0.00 | 0.00 | 25 | 1017.6 |
| 20260504212305 | 55 | 127 | 7.0 | 23.0 | 0.00 | 0.00 | 0.00 | 25 | 1017.5 |
| 20260504211804 | 55 | 117 | 7.0 | 17.0 | 0.00 | 0.00 | 0.00 | 24 | 1017.5 |
| 20260504211304 | 55 | 104 | 6.0 | 16.0 | 0.00 | 0.00 | 0.00 | 25 | 1017.6 |
| 20260504210804 | 56 | 119 | 7.0 | 15.0 | 0.00 | 0.00 | 0.00 | 25 | 1017.7 |
| 20260504210303 | 55 | 122 | 6.0 | 14.0 | 0.00 | 0.00 | 0.00 | 26 | 1017.7 |
| 20260504205804 | 55 | 140 | 7.0 | 15.0 | 0.00 | 0.00 | 0.00 | 25 | 1017.7 |
| 20260504205304 | 55 | 104 | 7.0 | 17.0 | 0.00 | 0.00 | 0.00 | 25 | 1017.7 |
| 20260504204804 | 55 | 107 | 9.0 | 14.0 | 0.00 | 0.00 | 0.00 | 25 | 1017.6 |
| 20260504204304 | 55 | 61 | 5.0 | 16.0 | 0.00 | 0.00 | 0.00 | 25 | 1017.7 |
| 20260504203804 | 55 | 100 | 6.0 | 14.0 | 0.00 | 0.00 | 0.00 | 25 | 1017.8 |
| 20260504203304 | 55 | 113 | 6.0 | 17.0 | 0.00 | 0.00 | 0.00 | 25 | 1017.7 |
| 20260504202804 | 55 | 112 | 5.0 | 16.0 | 0.00 | 0.00 | 0.00 | 25 | 1017.8 |
| 20260504202305 | 55 | 121 | 5.0 | 17.0 | 0.00 | 0.00 | 0.00 | 26 | 1017.6 |
| 20260504200804 | 55 | 102 | 6.0 | 23.0 | 0.00 | 0.00 | 0.00 | 26 | 1017.8 |
| 20260504200304 | 55 | 91 | 9.0 | 22.0 | 0.00 | 0.00 | 0.00 | 25 | 1017.8 |
| 20260504195803 | 55 | 135 | 8.0 | 23.0 | 0.00 | 0.00 | 0.00 | 25 | 1017.7 |
| 20260504195304 | 55 | 91 | 7.0 | 15.0 | 0.00 | 0.00 | 0.00 | 25 | 1017.8 |
| 20260504194804 | 55 | 124 | 10.0 | 21.0 | 0.00 | 0.00 | 0.00 | 23 | 1017.8 |
| 20260504193804 | 55 | 68 | 7.0 | 17.0 | 0.00 | 0.00 | 0.00 | 28 | 1017.8 |
| 20260504192803 | 54 | 118 | 7.0 | 25.0 | 0.00 | 0.00 | 0.00 | 25 | 1017.7 |
| 20260504192304 | 54 | 101 | 6.0 | 21.0 | 0.00 | 0.00 | 0.00 | 28 | 1017.9 |
| 20260504191804 | 54 | 106 | 8.0 | 21.0 | 0.00 | 0.00 | 0.00 | 28 | 1018.0 |
| 20260504191304 | 54 | 122 | 8.0 | 22.0 | 0.00 | 0.00 | 0.00 | 26 | 1018.0 |
| 20260504190804 | 54 | 88 | 7.0 | 18.0 | 0.00 | 0.00 | 0.00 | 27 | 1017.9 |
| 20260504185805 | 55 | 119 | 6.0 | 16.0 | 0.00 | 0.00 | 0.00 | 27 | 1018.1 |
| 20260504185305 | 55 | 116 | 9.0 | 20.0 | 0.00 | 0.00 | 0.00 | 28 | 1018.0 |
| 20260504184804 | 55 | 121 | 6.0 | 16.0 | 0.00 | 0.00 | 0.00 | 27 | 1017.9 |
| 20260504184304 | 55 | 120 | 5.0 | 15.0 | 0.00 | 0.00 | 0.00 | 29 | 1018.0 |
| 20260504183804 | 54 | 112 | 9.0 | 21.0 | 0.00 | 0.00 | 0.00 | 27 | 1018.0 |
| 20260504183304 | 54 | 112 | 7.0 | 16.0 | 0.00 | 0.00 | 0.00 | 29 | 1018.0 |
| 20260504182804 | 54 | 105 | 7.0 | 14.0 | 0.00 | 0.00 | 0.00 | 29 | 1018.2 |
| 20260504182304 | 54 | 38 | 6.0 | 17.0 | 0.00 | 0.00 | 0.00 | 29 | 1018.1 |
| 20260504181804 | 54 | 101 | 7.0 | 18.0 | 0.00 | 0.00 | 0.00 | 28 | 1018.2 |
| 20260504181304 | 53 | 66 | 5.0 | 21.0 | 0.00 | 0.00 | 0.00 | 29 | 1018.3 |
| 20260504180803 | 54 | 82 | 6.0 | 17.0 | 0.00 | 0.00 | 0.00 | 30 | 1018.1 |
| 20260504180306 | 53 | 42 | 6.0 | 21.0 | 0.00 | 0.00 | 0.00 | 30 | 1018.4 |
| 20260504175804 | 54 | 116 | 8.0 | 24.0 | 0.00 | 0.00 | 0.00 | 30 | 1018.2 |
| 20260504175304 | 55 | 103 | 6.0 | 17.0 | 0.00 | 0.00 | 0.00 | 28 | 1018.6 |
| 20260504174804 | 54 | 110 | 7.0 | 21.0 | 0.00 | 0.00 | 0.00 | 30 | 1018.5 |
| 20260504174304 | 55 | 84 | 8.0 | 17.0 | 0.00 | 0.00 | 0.00 | 31 | 1018.4 |
| 20260504173304 | 55 | 114 | 5.0 | 14.0 | 0.00 | 0.00 | 0.00 | 31 | 1018.4 |
| 20260504172804 | 55 | 94 | 6.0 | 18.0 | 0.00 | 0.00 | 0.00 | 33 | 1018.5 |
| 20260504172304 | 54 | 117 | 5.0 | 18.0 | 0.00 | 0.00 | 0.00 | 36 | 1018.6 |
| 20260504171804 | 54 | 126 | 8.0 | 18.0 | 0.00 | 0.00 | 0.00 | 34 | 1018.4 |
| 20260504170804 | 52 | 114 | 6.0 | 22.0 | 0.00 | 0.00 | 0.00 | 36 | 1018.4 |
| 20260504160304 | 49 | 118 | 5.0 | 12.0 | 0.00 | 0.00 | 0.00 | 42 | 1018.8 |
| 20260504150804 | 45 | 99 | 5.0 | 8.0 | 0.00 | 0.00 | 0.00 | 50 | 1018.5 |
| 20260504150304 | 44 | 90 | 2.0 | 5.0 | 0.00 | 0.00 | 0.00 | 52 | 1018.6 |
| 20260504140304 | 42 | 101 | 2.0 | 6.0 | 0.00 | 0.00 | 0.00 | 52 | 1018.1 |
| 20260504130803 | 41 | 109 | 3.0 | 8.0 | 0.00 | 0.00 | 0.00 | 57 | 1017.9 |
| 20260504130305 | 41 | 94 | 2.0 | 7.0 | 0.00 | 0.00 | 0.00 | 57 | 1017.9 |
| 20260504120304 | 40 | 90 | 2.0 | 6.0 | 0.00 | 0.00 | 0.00 | 59 | 1018.1 |
| 20260504110304 | 42 | 100 | 2.0 | 6.0 | 0.00 | 0.00 | 0.00 | 55 | 1017.8 |
| 20260504100303 | 44 | 26 | 1.0 | 2.0 | 0.00 | 0.00 | 0.00 | 59 | 1017.5 |
| 20260504081304 | 48 | 102 | 1.0 | 1.0 | 0.00 | 0.00 | 0.00 | 56 | 1017.3 |
| 20260504080804 | 48 | 95 | 1.0 | 1.0 | 0.00 | 0.00 | 0.00 | 57 | 1017.4 |